Tracking 27124 objects as of 31-Mar-2023
HD Live streaming from Space Station
objects crossing your sky now

SL-8 DEB

Track SL-8 DEB now!
10-day predictions


NORAD ID: 29286
Int'l Code: 1981-120Q
Perigee: 1,658.5 km
Apogee: 1,664.2 km
Inclination: 83.0 °
Period: 119.4 minutes
Semi major axis: 8032 km
RCS: 0.0083 m2 (small)
Launch date: December 17, 1981
Source: Commonwealth of Independent States (former USSR) (CIS)
Launch site: PLESETSK MISSILE AND SPACE COMPLEX (PKMTR)

Note: This is SATELLITE DEBRIS
Your satellite tracking list
Your tracking list is empty




NASA's NSSDC Master Catalog

Two Line Element Set (TLE):
1 29286U 81120Q   23087.03476669 -.00000023  00000-0 -37853-3 0  9996
2 29286  82.9864   6.8604 0003588  36.4877 335.9685 12.05973301445710
Source of the keplerian elements: AFSPC